QPF
0.00 0.00 0.00 0.00 0.00 0.00 0.00 0.00 0.00 0.00 0.00 0.00 0.00 0.00 0.00 0.00 0.00 0.00 0.00 0.00 0.01 0.01 0.02 0.06 0.10 0.13 0.16 0.17 0.18 0.19 0.27 0.36 0.44 0.40 0.29 0.22 0.17 0.18 0.15 0.15 0.14 0.16 0.19 0.25
0.00 0.00 0.00 0.00 0.00 0.00 0.00 0.00 0.00 0.00 0.00 0.00 0.00 0.00 0.00 0.00 0.00 0.00 0.00 0.00 0.01 0.02 0.03 0.03 0.04 0.08 0.11 0.09 0.09 0.10 0.12 0.15 0.19 0.22 0.19 0.16 0.17 0.15 0.13 0.14 0.13 0.16 0.22 0.29
0.00 0.00 0.00 0.00 0.00 0.00 0.00 0.00 0.00 0.00 0.00 0.00 0.00 0.00 0.00 0.00 0.00 0.01 0.01 0.01 0.02 0.03 0.05 0.06 0.04 0.02 0.03 0.02 0.03 0.03 0.03 0.04 0.06 0.08 0.11 0.13 0.14 0.12 0.11 0.12 0.12 0.14 0.23 0.29
0.00 0.00 0.00 0.00 0.00 0.00 0.00 0.00 0.00 0.00 0.00 0.00 0.00 0.00 0.00 0.00 0.00 0.01 0.02 0.03 0.05 0.07 0.08 0.04 0.02 0.00 0.00 0.00 0.00 0.01 0.01 0.01 0.02 0.03 0.05 0.07 0.07 0.08 0.10 0.11 0.10 0.13 0.19 0.22
0.00 0.00 0.00 0.00 0.00 0.00 0.00 0.00 0.00 0.00 0.00 0.00 0.00 0.00 0.00 0.00 0.01 0.02 0.03 0.05 0.04 0.06 0.04 0.01 0.00 0.00 0.00 0.00 0.00 0.00 0.00 0.00 0.00 0.01 0.01 0.02 0.02 0.03 0.04 0.05 0.07 0.08 0.12 0.16
0.00 0.00 0.00 0.00 0.00 0.00 0.00 0.00 0.00 0.00 0.00 0.00 0.01 0.01 0.01 0.02 0.02 0.02 0.02 0.02 0.02 0.01 0.00 0.00 0.00 0.00 0.00 0.00 0.00 0.00 0.00 0.00 0.00 0.00 0.00 0.00 0.01 0.01 0.01 0.02 0.04 0.05 0.06 0.06
0.00 0.00 0.00 0.00 0.00 0.00 0.00 0.00 0.00 0.00 0.00 0.01 0.01 0.02 0.03 0.04 0.02 0.02 0.02 0.01 0.00 0.00 0.00 0.00 0.00 0.00 0.00 0.00 0.00 0.00 0.00 0.00 0.00 0.00 0.00 0.00 0.00 0.00 0.00 0.01 0.02 0.03 0.03 0.04
0.00 0.00 0.00 0.00 0.00 0.00 0.00 0.00 0.00 0.00 0.00 0.00 0.00 0.01 0.02 0.03 0.02 0.02 0.02 0.01 0.00 0.00 0.00 0.00 0.00 0.00 0.00 0.00 0.00 0.00 0.00 0.00 0.00 0.00 0.00 0.00 0.00 0.00 0.00 0.00 0.01 0.02 0.02 0.04
0.00 0.00 0.00 0.00 0.01 0.00 0.00 0.00 0.00 0.00 0.00 0.00 0.00 0.01 0.01 0.01 0.01 0.01 0.01 0.00 0.00 0.00 0.00 0.00 0.00 0.00 0.00 0.00 0.00 0.00 0.00 0.00 0.00 0.00 0.00 0.00 0.00 0.00 0.00 0.00 0.01 0.01 0.02 0.03
0.00 0.00 0.00 0.00 0.00 0.00 0.00 0.00 0.00 0.00 0.00 0.00 0.00 0.00 0.00 0.01 0.00 0.01 0.00 0.00 0.00 0.00 0.00 0.00 0.00 0.00 0.00 0.00 0.00 0.00 0.00 0.00 0.00 0.00 0.00 0.00 0.00 0.00 0.00 0.01 0.01 0.01 0.02 0.04
0.00 0.00 0.00 0.00 0.00 0.01 0.01 0.01 0.01 0.01 0.00 0.00 0.00 0.00 0.00 0.00 0.00 0.00 0.00 0.00 0.00 0.00 0.00 0.00 0.00 0.00 0.00 0.00 0.00 0.00 0.00 0.00 0.00 0.00 0.00 0.00 0.00 0.00 0.00 0.01 0.01 0.02 0.03 0.05
0.00 0.00 0.00 0.00 0.00 0.00 0.01 0.01 0.01 0.01 0.00 0.00 0.00 0.00 0.00 0.00 0.00 0.00 0.00 0.00 0.00 0.00 0.00 0.00 0.00 0.00 0.00 0.00 0.00 0.00 0.00 0.00 0.00 0.00 0.00 0.00 0.00 0.01 0.01 0.01 0.02 0.03 0.05 0.06
0.00 0.00 0.00 0.00 0.00 0.00 0.00 0.00 0.01 0.01 0.00 0.00 0.00 0.00 0.00 0.00 0.00 0.00 0.00 0.00 0.00 0.00 0.00 0.00 0.00 0.00 0.00 0.00 0.00 0.00 0.00 0.00 0.00 0.00 0.00 0.00 0.01 0.01 0.01 0.03 0.04 0.05 0.05 0.06
0.00 0.00 0.00 0.00 0.00 0.00 0.00 0.00 0.00 0.00 0.00 0.00 0.00 0.00 0.00 0.00 0.00 0.00 0.00 0.00 0.00 0.00 0.00 0.00 0.00 0.00 0.00 0.00 0.00 0.00 0.00 0.00 0.00 0.00 0.00 0.01 0.01 0.00 0.00 0.02 0.06 0.07 0.08 0.08
0.00 0.00 0.00 0.00 0.00 0.00 0.00 0.00 0.00 0.00 0.00 0.00 0.00 0.00 0.00 0.00 0.00 0.00 0.00 0.00 0.00 0.00 0.00 0.00 0.00 0.00 0.00 0.00 0.00 0.00 0.00 0.00 0.00 0.00 0.00 0.01 0.00 0.00 0.00 0.00 0.01 0.03 0.05 0.05
0.00 0.00 0.00 0.00 0.00 0.00 0.00 0.00 0.00 0.00 0.00 0.00 0.00 0.00 0.00 0.00 0.00 0.00 0.00 0.00 0.00 0.00 0.00 0.00 0.00 0.00 0.00 0.00 0.00 0.00 0.00 0.00 0.00 0.00 0.00 0.01 0.00 0.00 0.00 0.01 0.01 0.01 0.02 0.04
0.00 0.00 0.00 0.00 0.00 0.00 0.00 0.00 0.00 0.00 0.00 0.00 0.00 0.00 0.00 0.00 0.00 0.00 0.00 0.00 0.00 0.00 0.00 0.00 0.00 0.00 0.00 0.00 0.00 0.00 0.00 0.00 0.00 0.00 0.01 0.01 0.00 0.00 0.00 0.00 0.01 0.01 0.02 0.02
0.00 0.00 0.00 0.00 0.00 0.00 0.00 0.00 0.00 0.00 0.00 0.00 0.00 0.00 0.00 0.00 0.00 0.00 0.00 0.00 0.00 0.00 0.00 0.00 0.01 0.01 0.01 0.01 0.01 0.00 0.00 0.00 0.00 0.01 0.01 0.01 0.01 0.01 0.01 0.00 0.01 0.01 0.01 0.02
0.00 0.00 0.00 0.00 0.00 0.00 0.00 0.01 0.01 0.01 0.01 0.00 0.00 0.00 0.00 0.00 0.00 0.00 0.00 0.00 0.00 0.00 0.01 0.01 0.01 0.01 0.01 0.01 0.01 0.01 0.01 0.01 0.01 0.02 0.02 0.02 0.02 0.01 0.01 0.01 0.01 0.01 0.01 0.01
0.00 0.00 0.00 0.00 0.00 0.01 0.01 0.02 0.03 0.02 0.02 0.01 0.00 0.00 0.00 0.00 0.00 0.00 0.00 0.00 0.00 0.00 0.01 0.01 0.01 0.02 0.02 0.02 0.02 0.02 0.03 0.04 0.04 0.04 0.03 0.03 0.02 0.02 0.02 0.01 0.01 0.01 0.01 0.00
0.00 0.00 0.00 0.01 0.02 0.02 0.01 0.03 0.02 0.03 0.03 0.01 0.00 0.00 0.00 0.00 0.01 0.00 0.00 0.00 0.00 0.01 0.01 0.01 0.02 0.02 0.02 0.03 0.04 0.05 0.06 0.07 0.08 0.07 0.06 0.05 0.04 0.03 0.03 0.03 0.02 0.01 0.01 0.00
0.00 0.01 0.01 0.02 0.03 0.04 0.01 0.00 0.00 0.01 0.00 0.00 0.00 0.00 0.00 0.00 0.00 0.00 0.00 0.00 0.00 0.01 0.01 0.02 0.03 0.03 0.03 0.05 0.07 0.10 0.11 0.13 0.14 0.13 0.11 0.08 0.06 0.05 0.04 0.04 0.03 0.02 0.01 0.00
0.00 0.01 0.02 0.01 0.01 0.01 0.00 0.00 0.00 0.00 0.00 0.00 0.00 0.00 0.00 0.00 0.00 0.00 0.00 0.00 0.00 0.01 0.01 0.02 0.03 0.03 0.04 0.07 0.12 0.16 0.18 0.20 0.22 0.21 0.17 0.13 0.10 0.08 0.07 0.06 0.04 0.02 0.01 0.00
0.00 0.01 0.01 0.01 0.00 0.00 0.00 0.00 0.00 0.00 0.00 0.00 0.00 0.00 0.00 0.00 0.00 0.00 0.00 0.00 0.00 0.00 0.02 0.03 0.03 0.04 0.05 0.09 0.14 0.20 0.24 0.26 0.25 0.22 0.18 0.15 0.12 0.10 0.09 0.09 0.06 0.03 0.01 0.00
0.00 0.00 0.00 0.00 0.00 0.00 0.00 0.00 0.00 0.00 0.00 0.00 0.00 0.00 0.00 0.00 0.00 0.00 0.00 0.00 0.00 0.01 0.01 0.02 0.03 0.03 0.05 0.09 0.16 0.25 0.32 0.33 0.31 0.26 0.21 0.17 0.14 0.10 0.09 0.11 0.11 0.06 0.02 0.01
0.00 0.00 0.00 0.00 0.00 0.00 0.00 0.00 0.00 0.00 0.00 0.00 0.00 0.00 0.00 0.00 0.00 0.00 0.00 0.00 0.01 0.01 0.01 0.01 0.02 0.03 0.05 0.09 0.17 0.26 0.35 0.40 0.41 0.40 0.32 0.25 0.20 0.15 0.12 0.12 0.11 0.09 0.06 0.02
MSLP
1012.50 1013.12 1013.55 1013.76 1013.80 1013.70 1013.51 1013.29 1013.07 1012.84 1012.59 1012.31 1011.98 1011.61 1011.19 1010.77 1010.39 1010.10 1009.92 1009.88 1009.96 1010.13 1010.35 1010.57 1010.74 1010.85 1010.88 1010.87 1010.83 1010.80 1010.80 1010.83 1010.89 1010.94 1010.95 1010.88 1010.72 1010.44 1010.07 1009.65 1009.23 1008.86 1008.59 1008.45
1012.76 1013.23 1013.51 1013.62 1013.61 1013.55 1013.47 1013.42 1013.40 1013.39 1013.33 1013.20 1012.95 1012.59 1012.13 1011.62 1011.13 1010.73 1010.45 1010.32 1010.34 1010.47 1010.66 1010.84 1010.96 1011.01 1010.97 1010.87 1010.76 1010.66 1010.62 1010.63 1010.70 1010.78 1010.82 1010.79 1010.63 1010.34 1009.94 1009.46 1008.97 1008.53 1008.19 1008.01
1012.78 1013.07 1013.20 1013.24 1013.23 1013.25 1013.35 1013.53 1013.77 1014.01 1014.17 1014.20 1014.04 1013.68 1013.16 1012.53 1011.88 1011.31 1010.88 1010.63 1010.55 1010.62 1010.75 1010.89 1010.98 1010.99 1010.90 1010.75 1010.58 1010.44 1010.36 1010.37 1010.45 1010.56 1010.64 1010.63 1010.50 1010.23 1009.81 1009.31 1008.78 1008.29 1007.90 1007.67
1012.61 1012.73 1012.74 1012.72 1012.76 1012.91 1013.22 1013.67 1014.20 1014.71 1015.11 1015.30 1015.21 1014.84 1014.22 1013.44 1012.61 1011.83 1011.21 1010.79 1010.59 1010.55 1010.63 1010.74 1010.80 1010.79 1010.68 1010.51 1010.31 1010.15 1010.06 1010.07 1010.16 1010.28 1010.39 1010.43 1010.33 1010.08 1009.68 1009.18 1008.63 1008.11 1007.69 1007.42
1012.39 1012.34 1012.25 1012.22 1012.33 1012.64 1013.18 1013.90 1014.71 1015.49 1016.10 1016.43 1016.40 1016.00 1015.27 1014.31 1013.26 1012.27 1011.43 1010.82 1010.46 1010.32 1010.33 1010.41 1010.46 1010.45 1010.36 1010.19 1010.00 1009.84 1009.75 1009.76 1009.85 1010.00 1010.13 1010.20 1010.14 1009.92 1009.56 1009.07 1008.53 1008.00 1007.54 1007.22
1012.24 1012.05 1011.90 1011.87 1012.06 1012.53 1013.28 1014.24 1015.30 1016.30 1017.08 1017.51 1017.50 1017.05 1016.20 1015.06 1013.81 1012.59 1011.54 1010.74 1010.23 1009.98 1009.93 1009.97 1010.04 1010.05 1009.99 1009.86 1009.69 1009.55 1009.47 1009.49 1009.59 1009.74 1009.89 1009.99 1009.96 1009.79 1009.45 1009.00 1008.46 1007.93 1007.45 1007.08
1012.26 1011.98 1011.79 1011.78 1012.04 1012.64 1013.54 1014.68 1015.91 1017.06 1017.94 1018.42 1018.40 1017.88 1016.92 1015.63 1014.19 1012.78 1011.55 1010.59 1009.95 1009.60 1009.49 1009.52 1009.60 1009.64 1009.63 1009.55 1009.43 1009.32 1009.26 1009.28 1009.39 1009.55 1009.72 1009.83 1009.84 1009.70 1009.41 1008.98 1008.46 1007.92 1007.41 1006.99
1012.50 1012.18 1011.97 1011.98 1012.29 1012.96 1013.95 1015.17 1016.47 1017.66 1018.57 1019.04 1018.99 1018.40 1017.35 1015.95 1014.39 1012.85 1011.49 1010.42 1009.68 1009.27 1009.12 1009.14 1009.23 1009.31 1009.34 1009.31 1009.24 1009.16 1009.12 1009.16 1009.27 1009.44 1009.62 1009.75 1009.79 1009.69 1009.43 1009.03 1008.54 1007.99 1007.45 1006.97
1012.92 1012.61 1012.41 1012.43 1012.77 1013.44 1014.42 1015.62 1016.89 1018.03 1018.89 1019.30 1019.20 1018.56 1017.46 1016.01 1014.41 1012.82 1011.42 1010.30 1009.51 1009.06 1008.89 1008.90 1008.99 1009.10 1009.16 1009.17 1009.13 1009.08 1009.06 1009.11 1009.23 1009.40 1009.59 1009.74 1009.81 1009.75 1009.53 1009.17 1008.69 1008.14 1007.57 1007.04
1013.44 1013.18 1013.01 1013.05 1013.36 1013.98 1014.88 1015.97 1017.10 1018.12 1018.86 1019.18 1019.02 1018.36 1017.26 1015.85 1014.29 1012.76 1011.39 1010.29 1009.52 1009.06 1008.87 1008.87 1008.95 1009.05 1009.11 1009.13 1009.10 1009.06 1009.05 1009.09 1009.21 1009.39 1009.59 1009.76 1009.86 1009.85 1009.68 1009.36 1008.92 1008.38 1007.79 1007.22
1013.93 1013.75 1013.64 1013.69 1013.96 1014.48 1015.23 1016.14 1017.09 1017.93 1018.51 1018.73 1018.53 1017.89 1016.87 1015.57 1014.15 1012.74 1011.50 1010.49 1009.77 1009.33 1009.13 1009.09 1009.13 1009.19 1009.21 1009.19 1009.13 1009.07 1009.04 1009.07 1009.17 1009.34 1009.55 1009.75 1009.90 1009.93 1009.83 1009.58 1009.19 1008.69 1008.12 1007.53
1014.28 1014.21 1014.17 1014.23 1014.45 1014.86 1015.45 1016.16 1016.89 1017.53 1017.96 1018.09 1017.87 1017.30 1016.41 1015.29 1014.08 1012.88 1011.80 1010.93 1010.29 1009.87 1009.65 1009.56 1009.53 1009.50 1009.44 1009.34 1009.21 1009.08 1009.00 1008.99 1009.06 1009.22 1009.43 1009.65 1009.84 1009.95 1009.93 1009.76 1009.46 1009.03 1008.51 1007.95
1014.42 1014.48 1014.51 1014.60 1014.78 1015.10 1015.53 1016.05 1016.58 1017.04 1017.35 1017.42 1017.22 1016.75 1016.04 1015.15 1014.18 1013.22 1012.35 1011.62 1011.07 1010.68 1010.43 1010.26 1010.12 1009.96 1009.78 1009.55 1009.31 1009.09 1008.92 1008.84 1008.86 1008.98 1009.17 1009.41 1009.65 1009.82 1009.90 1009.85 1009.66 1009.34 1008.92 1008.44
1014.38 1014.55 1014.67 1014.79 1014.96 1015.20 1015.52 1015.89 1016.28 1016.60 1016.82 1016.88 1016.74 1016.40 1015.88 1015.23 1014.51 1013.79 1013.12 1012.54 1012.07 1011.69 1011.38 1011.11 1010.83 1010.53 1010.19 1009.82 1009.44 1009.09 1008.80 1008.62 1008.56 1008.62 1008.79 1009.02 1009.29 1009.53 1009.71 1009.79 1009.74 1009.57 1009.28 1008.92
1014.23 1014.48 1014.68 1014.85 1015.04 1015.26 1015.51 1015.80 1016.08 1016.34 1016.52 1016.59 1016.52 1016.32 1015.99 1015.56 1015.06 1014.55 1014.05 1013.58 1013.16 1012.77 1012.40 1012.01 1011.60 1011.14 1010.64 1010.11 1009.58 1009.09 1008.67 1008.37 1008.21 1008.18 1008.29 1008.50 1008.78 1009.08 1009.35 1009.55 1009.66 1009.65 1009.53 1009.33
1014.08 1014.39 1014.65 1014.88 1015.11 1015.34 1015.58 1015.84 1016.09 1016.32 1016.49 1016.59 1016.61 1016.52 1016.34 1016.08 1015.75 1015.39 1015.01 1014.61 1014.21 1013.79 1013.34 1012.85 1012.31 1011.71 1011.07 1010.40 1009.74 1009.11 1008.56 1008.14 1007.85 1007.72 1007.74 1007.90 1008.16 1008.48 1008.83 1009.14 1009.39 1009.56 1009.62 1009.58
1014.06 1014.39 1014.70 1014.98 1015.26 1015.53 1015.80 1016.06 1016.32 1016.55 1016.74 1016.88 1016.95 1016.94 1016.85 1016.69 1016.46 1016.17 1015.84 1015.47 1015.05 1014.59 1014.08 1013.50 1012.87 1012.17 1011.43 1010.66 1009.89 1009.16 1008.50 1007.96 1007.55 1007.30 1007.21 1007.28 1007.49 1007.81 1008.19 1008.58 1008.96 1009.27 1009.51 1009.64
1014.27 1014.60 1014.93 1015.25 1015.57 1015.89 1016.19 1016.49 1016.76 1017.01 1017.21 1017.35 1017.43 1017.44 1017.37 1017.23 1017.02 1016.74 1016.40 1016.01 1015.56 1015.05 1014.49 1013.86 1013.18 1012.44 1011.66 1010.85 1010.03 1009.23 1008.50 1007.85 1007.33 1006.96 1006.75 1006.71 1006.84 1007.11 1007.48 1007.92 1008.38 1008.81 1009.19 1009.48
1014.75 1015.06 1015.39 1015.73 1016.07 1016.42 1016.75 1017.07 1017.34 1017.58 1017.75 1017.87 1017.91 1017.88 1017.76 1017.57 1017.31 1016.98 1016.58 1016.13 1015.64 1015.09 1014.50 1013.87 1013.19 1012.47 1011.71 1010.92 1010.11 1009.31 1008.54 1007.83 1007.21 1006.72 1006.39 1006.23 1006.25 1006.43 1006.77 1007.20 1007.70 1008.22 1008.70 1009.12
1015.49 1015.76 1016.07 1016.40 1016.74 1017.09 1017.41 1017.71 1017.96 1018.14 1018.26 1018.30 1018.25 1018.12 1017.91 1017.62 1017.25 1016.83 1016.35 1015.83 1015.29 1014.72 1014.13 1013.53 1012.91 1012.25 1011.57 1010.85 1010.11 1009.34 1008.57 1007.83 1007.15 1006.57 1006.12 1005.84 1005.73 1005.82 1006.08 1006.48 1006.98 1007.53 1008.08 1008.59
1016.41 1016.65 1016.92 1017.21 1017.52 1017.82 1018.09 1018.32 1018.49 1018.59 1018.61 1018.53 1018.36 1018.11 1017.76 1017.34 1016.85 1016.31 1015.75 1015.16 1014.58 1014.00 1013.44 1012.90 1012.35 1011.80 1011.23 1010.62 1009.97 1009.27 1008.54 1007.80 1007.09 1006.44 1005.89 1005.50 1005.28 1005.25 1005.42 1005.76 1006.23 1006.79 1007.38 1007.96
1017.41 1017.62 1017.84 1018.08 1018.31 1018.52 1018.69 1018.82 1018.87 1018.84 1018.73 1018.51 1018.20 1017.80 1017.32 1016.77 1016.16 1015.53 1014.88 1014.24 1013.63 1013.06 1012.54 1012.06 1011.60 1011.16 1010.70 1010.21 1009.66 1009.05 1008.38 1007.67 1006.94 1006.25 1005.64 1005.16 1004.84 1004.72 1004.80 1005.07 1005.50 1006.04 1006.65 1007.27
1018.38 1018.57 1018.74 1018.89 1019.02 1019.10 1019.14 1019.12 1019.03 1018.85 1018.58 1018.23 1017.78 1017.26 1016.66 1016.00 1015.30 1014.59 1013.89 1013.22 1012.59 1012.03 1011.54 1011.12 1010.74 1010.38 1010.02 1009.63 1009.18 1008.65 1008.04 1007.36 1006.65 1005.95 1005.29 1004.75 1004.36 1004.16 1004.17 1004.38 1004.76 1005.29 1005.91 1006.56
1019.25 1019.42 1019.52 1019.57 1019.57 1019.51 1019.38 1019.19 1018.93 1018.60 1018.19 1017.71 1017.16 1016.54 1015.86 1015.14 1014.39 1013.64 1012.91 1012.22 1011.59 1011.03 1010.56 1010.17 1009.83 1009.53 1009.23 1008.90 1008.51 1008.04 1007.49 1006.85 1006.16 1005.47 1004.80 1004.23 1003.80 1003.56 1003.51 1003.68 1004.03 1004.54 1005.17 1005.85
1019.95 1020.08 1020.11 1020.05 1019.90 1019.67 1019.37 1019.01 1018.59 1018.12 1017.59 1017.02 1016.39 1015.72 1015.01 1014.27 1013.51 1012.75 1012.02 1011.33 1010.70 1010.14 1009.66 1009.26 1008.93 1008.63 1008.35 1008.04 1007.68 1007.24 1006.72 1006.12 1005.47 1004.79 1004.15 1003.58 1003.14 1002.88 1002.82 1002.96 1003.30 1003.80 1004.43 1005.14
1020.44 1020.53 1020.47 1020.27 1019.97 1019.58 1019.12 1018.60 1018.04 1017.45 1016.84 1016.20 1015.55 1014.87 1014.17 1013.45 1012.72 1011.99 1011.27 1010.58 1009.94 1009.36 1008.86 1008.42 1008.05 1007.72 1007.40 1007.08 1006.71 1006.28 1005.78 1005.21 1004.59 1003.95 1003.34 1002.80 1002.39 1002.13 1002.07 1002.21 1002.55 1003.06 1003.70 1004.44
Thickness
5774 5758 5748 5758 5767 5770 5772 5770 5769 5783 5803 5799 5792 5795 5805 5812 5809 5802 5798 5796 5793 5792 5795 5796 5793 5790 5785 5781 5777 5772 5768 5765 5762 5759 5756 5755 5756 5760 5762 5764 5765 5764 5763 5762
5751 5747 5768 5779 5782 5779 5773 5763 5763 5776 5793 5790 5782 5783 5792 5796 5795 5793 5790 5787 5787 5786 5788 5790 5788 5785 5780 5775 5770 5766 5761 5757 5754 5751 5750 5750 5751 5753 5755 5756 5757 5757 5756 5755
5745 5763 5785 5783 5777 5771 5766 5760 5761 5763 5773 5778 5770 5758 5767 5779 5785 5784 5782 5782 5783 5783 5780 5782 5782 5780 5777 5771 5766 5761 5755 5751 5748 5745 5742 5741 5741 5742 5743 5745 5746 5748 5748 5748
5762 5778 5780 5774 5769 5769 5752 5771 5771 5766 5751 5741 5752 5724 5748 5760 5764 5767 5769 5770 5773 5775 5775 5774 5774 5773 5771 5768 5764 5758 5752 5747 5743 5740 5735 5731 5728 5727 5730 5733 5736 5738 5739 5740
5755 5770 5769 5764 5769 5773 5764 5775 5768 5761 5749 5735 5738 5724 5731 5748 5747 5753 5760 5765 5767 5769 5770 5769 5769 5769 5767 5763 5758 5753 5747 5742 5738 5734 5730 5725 5722 5721 5723 5724 5726 5727 5730 5731
5765 5779 5777 5774 5779 5778 5773 5761 5750 5737 5724 5709 5726 5720 5717 5732 5742 5747 5753 5759 5762 5765 5767 5766 5766 5764 5760 5755 5749 5745 5739 5734 5731 5727 5723 5719 5715 5714 5713 5714 5715 5717 5719 5721
5747 5761 5775 5781 5765 5764 5756 5723 5698 5695 5688 5695 5720 5714 5714 5740 5750 5750 5751 5756 5760 5761 5760 5759 5757 5754 5749 5744 5740 5735 5729 5724 5722 5718 5715 5711 5708 5706 5704 5704 5705 5706 5708 5710
5727 5727 5758 5770 5760 5750 5749 5724 5692 5681 5679 5689 5708 5707 5721 5747 5753 5755 5755 5756 5756 5755 5753 5752 5750 5747 5742 5737 5732 5726 5721 5716 5713 5709 5705 5702 5699 5696 5694 5694 5694 5695 5696 5698
5728 5729 5761 5770 5772 5761 5744 5730 5722 5697 5697 5688 5696 5713 5730 5743 5742 5743 5745 5747 5746 5747 5747 5746 5744 5740 5736 5731 5725 5720 5714 5709 5704 5700 5696 5692 5689 5686 5684 5683 5683 5683 5685 5687
5745 5730 5746 5762 5767 5763 5755 5741 5711 5697 5682 5673 5688 5699 5702 5721 5726 5734 5736 5738 5741 5743 5742 5740 5737 5734 5731 5726 5721 5716 5710 5704 5698 5693 5688 5684 5680 5677 5674 5672 5671 5671 5673 5674
5749 5725 5729 5739 5739 5737 5741 5734 5716 5695 5687 5673 5668 5685 5720 5723 5728 5729 5732 5735 5735 5735 5734 5732 5730 5728 5725 5721 5716 5710 5705 5699 5693 5687 5682 5676 5672 5668 5665 5662 5661 5661 5661 5663
5745 5719 5710 5723 5743 5753 5746 5736 5716 5694 5690 5685 5672 5681 5719 5722 5724 5725 5724 5727 5727 5726 5724 5722 5721 5719 5716 5713 5709 5704 5699 5694 5689 5683 5677 5671 5666 5661 5657 5654 5652 5651 5651 5652
5743 5714 5695 5700 5714 5731 5733 5736 5729 5708 5691 5680 5671 5680 5707 5710 5710 5711 5711 5711 5711 5711 5711 5709 5707 5705 5704 5703 5701 5698 5694 5689 5684 5678 5672 5665 5660 5655 5650 5646 5644 5643 5642 5642
5747 5717 5700 5694 5700 5713 5717 5725 5729 5713 5687 5683 5684 5679 5685 5690 5691 5693 5694 5694 5695 5694 5693 5691 5689 5689 5690 5690 5690 5689 5687 5684 5679 5673 5667 5660 5655 5650 5645 5641 5637 5635 5634 5634
5741 5719 5719 5716 5722 5724 5721 5722 5725 5715 5706 5689 5678 5673 5672 5676 5677 5678 5680 5681 5680 5677 5676 5673 5672 5672 5673 5675 5677 5678 5677 5676 5673 5668 5662 5656 5651 5646 5640 5635 5631 5629 5627 5626
5736 5723 5721 5716 5724 5723 5716 5715 5713 5701 5696 5686 5675 5663 5667 5669 5669 5666 5664 5664 5661 5659 5659 5659 5659 5658 5658 5659 5663 5666 5668 5668 5666 5662 5658 5653 5647 5641 5635 5630 5626 5624 5621 5619
5727 5717 5707 5697 5710 5708 5691 5695 5688 5675 5672 5669 5656 5652 5656 5656 5655 5651 5649 5647 5645 5643 5643 5642 5641 5640 5641 5643 5648 5652 5658 5660 5659 5657 5654 5649 5643 5637 5632 5627 5622 5619 5616 5613
5725 5710 5696 5690 5693 5682 5682 5691 5681 5664 5654 5653 5648 5644 5643 5641 5643 5642 5638 5632 5628 5626 5625 5624 5624 5625 5626 5628 5632 5639 5644 5648 5650 5649 5647 5644 5639 5634 5629 5623 5619 5615 5612 5608
5734 5712 5691 5679 5675 5681 5679 5677 5668 5657 5639 5639 5635 5633 5631 5631 5633 5633 5628 5620 5613 5611 5608 5607 5607 5607 5609 5611 5615 5620 5627 5632 5636 5638 5639 5638 5635 5631 5625 5620 5616 5612 5609 5605
5721 5709 5689 5675 5667 5658 5659 5663 5665 5654 5628 5627 5624 5620 5617 5615 5607 5610 5612 5606 5603 5599 5596 5593 5592 5592 5592 5593 5596 5600 5606 5611 5617 5623 5628 5631 5631 5628 5624 5620 5615 5610 5607 5604
5694 5685 5677 5667 5659 5649 5639 5648 5655 5634 5619 5615 5611 5605 5600 5593 5588 5591 5590 5587 5583 5580 5577 5575 5573 5571 5571 5573 5575 5579 5585 5591 5598 5605 5613 5620 5623 5624 5622 5617 5614 5610 5606 5602
5668 5661 5655 5651 5646 5636 5628 5628 5618 5608 5607 5602 5597 5591 5585 5580 5579 5577 5574 5570 5566 5562 5559 5556 5553 5552 5551 5550 5552 5557 5564 5573 5582 5590 5599 5607 5613 5618 5618 5613 5610 5608 5604 5599
5652 5646 5642 5634 5625 5618 5616 5611 5607 5600 5593 5588 5582 5577 5571 5567 5564 5562 5558 5555 5551 5548 5544 5541 5538 5537 5536 5533 5533 5537 5546 5554 5564 5574 5584 5594 5603 5609 5612 5610 5607 5604 5601 5598
5641 5642 5633 5621 5614 5611 5607 5602 5596 5589 5580 5575 5569 5564 5557 5552 5550 5547 5544 5541 5538 5535 5532 5529 5526 5524 5524 5523 5522 5524 5531 5538 5547 5558 5570 5581 5591 5599 5604 5606 5605 5603 5601 5598
5626 5626 5620 5608 5603 5599 5595 5589 5583 5577 5570 5564 5559 5553 5546 5540 5537 5535 5532 5530 5527 5526 5523 5520 5516 5515 5515 5515 5514 5516 5518 5523 5532 5544 5556 5569 5581 5591 5598 5601 5603 5604 5604 5604
5614 5605 5598 5591 5589 5580 5578 5578 5573 5564 5558 5553 5546 5542 5536 5527 5523 5522 5520 5519 5517 5516 5515 5512 5510 5508 5508 5507 5507 5507 5508 5512 5521 5532 5545 5558 5571 5583 5592 5595 5597 5600 5601 5600